RH
63 62 71 82 88 87 70 55 61 52 55 60 75 84 84 85 86 91 93 94 93 95 99 100 98 97 99 100 100 100 100 100 100 100 99 95 92 88 83 78 76 74 74 73
78 65 84 84 83 89 78 76 79 90 77 78 85 74 84 86 88 92 93 92 93 97 98 96 99 100 100 100 100 99 100 100 100 100 100 97 91 85 81 78 78 77 77 79
76 52 76 77 69 87 88 85 68 72 56 95 96 88 86 88 88 92 94 95 96 97 100 100 100 100 100 100 100 100 100 100 100 98 91 85 83 82 83 83 83 84 84 82
96 82 93 62 79 79 80 84 82 86 80 94 88 82 77 78 83 90 89 93 96 100 100 100 100 100 100 100 100 100 100 94 90 89 88 87 85 81 72 62 52 48 42 37
96 95 78 62 43 70 77 78 85 99 97 99 100 92 99 88 86 88 91 91 93 98 100 100 100 100 100 100 100 99 96 92 89 85 74 59 40 29 26 24 23 21 20 21
96 96 95 61 51 52 66 62 77 93 96 98 92 99 98 100 100 100 98 95 95 98 99 99 100 98 98 96 91 81 66 48 33 26 24 22 23 22 22 22 22 21 20 20
96 96 91 86 81 59 42 72 95 100 98 96 98 100 100 100 100 100 100 100 100 100 97 88 76 63 57 52 48 42 38 36 34 34 32 29 27 26 25 24 24 22 21 20
93 96 92 93 75 62 93 90 99 97 100 99 100 100 100 100 100 100 99 99 100 90 79 76 65 56 54 55 52 47 44 41 37 34 32 32 30 29 28 26 24 23 22 22
83 92 94 99 98 98 99 98 99 97 98 98 100 100 100 99 98 98 98 97 97 84 75 78 82 86 64 58 53 50 47 46 45 40 38 36 35 33 31 29 28 29 34 35
88 91 95 99 96 98 100 98 98 98 96 97 97 97 97 97 96 96 96 96 95 84 85 93 98 85 69 56 53 52 51 50 48 45 43 41 40 40 41 42 45 51 53 60
96 90 94 90 98 98 98 99 98 99 99 98 95 96 95 96 96 96 96 94 85 77 77 75 77 79 84 81 61 56 55 53 51 50 48 47 46 45 46 47 51 52 49 51
99 98 97 99 99 98 96 97 99 97 98 99 97 94 96 96 96 96 96 96 95 95 96 95 95 94 81 63 57 54 51 49 46 44 41 38 36 34 33 32 33 33 32 33
98 99 97 98 98 98 96 97 97 96 97 96 98 96 96 95 96 96 96 96 95 94 92 81 70 61 55 51 47 44 41 38 36 34 32 30 28 27 24 25 24 22 22 22
99 99 96 93 96 97 97 96 97 96 96 96 95 96 95 92 93 90 87 85 86 87 88 88 84 77 67 52 40 37 35 33 30 27 22 19 18 17 17 17 17 17 18 18
98 97 95 96 97 96 97 97 96 95 96 96 97 96 96 96 96 96 96 96 96 95 89 66 48 41 38 35 30 25 20 18 18 18 17 16 15 14 14 15 16 17 17 18
100 98 97 96 96 96 96 96 94 95 97 96 96 96 94 90 81 67 55 48 43 40 38 34 28 24 22 20 19 18 17 16 16 16 16 15 16 19 22 26 31 36 33 26
98 97 97 96 96 96 96 96 95 91 83 77 70 63 57 53 50 46 41 35 30 26 25 23 22 21 21 21 20 19 18 18 19 22 30 30 28 34 42 56 63 62 49 45
96 96 96 94 91 84 80 75 73 69 65 60 57 53 48 41 35 31 28 27 26 26 26 25 25 24 24 23 24 24 23 23 24 26 30 39 54 60 68 79 87 76 57 50
84 84 78 74 71 68 66 63 61 60 57 53 48 44 40 36 34 32 30 30 30 29 28 27 27 27 27 27 27 28 29 30 34 44 49 59 84 100 100 99 83 76 73 57
72 68 64 62 61 61 64 66 68 67 66 63 60 54 47 42 38 36 34 32 31 30 30 34 36 38 39 39 39 38 36 37 43 59 72 76 76 80 91 92 98 88 86 81
50 42 39 38 39 41 48 52 60 68 73 71 68 64 55 49 43 38 35 32 35 35 36 38 37 38 42 44 45 48 61 74 68 57 56 71 93 100 100 93 87 80 81 90
43 45 46 44 43 40 39 39 39 41 44 45 48 49 47 42 42 38 37 38 41 41 39 39 40 42 44 65 79 91 94 89 87 77 75 79 82 80 82 88 87 80 74 80
49 50 49 52 54 48 39 37 37 37 38 40 41 42 41 41 44 46 49 54 59 61 62 62 64 68 100 100 100 100 100 100 100 98 98 99 84 83 84 87 80 78 90 93
52 52 52 55 59 55 51 50 48 46 44 43 44 45 46 46 49 53 58 60 60 60 60 62 84 100 100 98 96 99 99 100 98 98 99 100 96 96 94 90 95 98 95 98
54 52 50 51 51 54 57 57 60 64 66 67 70 70 66 60 63 54 58 59 61 62 59 57 62 97 100 97 100 100 100 99 97 89 83 71 63 65 67 77 80 99 100 92
54 48 49 55 54 54 57 57 57 62 63 58 57 65 70 76 81 84 83 85 82 76 76 78 85 88 91 90 88 84 83 84 78 66 69 74 76 76 78 79 80 82 86 90
55 50 55 57 58 58 59 60 61 66 73 75 70 84 89 89 89 89 92 93 93 93 92 92 93 97 100 99 97 94 92 92 94 93 86 78 77 81 87 92 95 97 98 97
Wind_Speed
4 2 3 4 4 7 17 22 10 15 14 6 7 11 15 24 30 30 29 29 28 29 28 28 27 28 29 30 29 29 29 30 29 29 27 25 23 21 19 18 16 15 15 14
3 4 4 3 4 7 14 5 6 2 9 5 3 13 19 27 34 33 34 32 30 29 29 29 30 30 30 30 30 29 29 29 28 27 26 24 22 20 19 18 17 16 15 14
6 3 1 9 9 10 6 5 12 16 16 7 3 9 23 30 34 32 35 35 33 32 30 30 29 29 30 30 30 29 29 28 27 25 23 22 20 19 18 17 16 15 15 15
2 2 6 5 2 1 7 3 7 3 3 2 3 5 17 27 35 34 36 36 35 33 32 30 29 29 29 29 29 28 28 27 25 24 22 21 19 18 17 16 16 15 15 15
4 5 6 0 3 2 5 2 3 3 4 1 4 6 3 19 29 33 36 36 35 33 31 30 29 29 28 28 29 27 27 26 24 22 21 20 18 17 15 14 13 14 14 15
2 3 5 1 3 6 1 4 4 3 4 5 9 4 3 13 26 30 34 35 34 32 31 30 29 29 29 29 28 27 25 24 22 20 19 17 16 15 14 13 13 13 14 14
4 3 4 4 9 9 5 4 13 11 4 6 2 1 11 19 24 25 28 30 30 30 30 29 30 30 29 28 27 25 23 20 19 18 17 15 13 11 11 12 12 14 15 16
3 2 6 12 4 1 5 7 8 8 3 8 9 11 17 22 25 27 30 30 29 29 29 28 27 27 27 27 24 22 20 19 17 16 14 11 10 10 11 13 15 17 17 17
1 1 5 10 8 8 8 5 6 5 4 8 14 15 18 22 25 27 28 28 27 27 27 26 24 21 22 22 20 18 16 14 13 11 10 9 9 10 12 14 15 15 14 14
3 5 6 12 11 13 11 9 7 6 6 8 15 17 21 23 24 24 24 25 24 24 25 26 23 20 17 16 15 14 12 12 10 9 9 9 10 11 12 13 12 12 11 11
3 4 1 12 15 11 10 9 8 7 7 9 14 19 21 22 22 22 23 23 21 21 22 22 20 17 15 13 12 12 11 9 8 8 7 8 9 9 10 10 11 12 13 14
1 9 3 4 9 8 7 9 8 7 10 11 13 20 20 22 21 20 21 21 20 18 17 17 15 14 13 12 10 8 7 7 6 6 7 7 8 9 11 12 14 15 16 16
3 4 7 6 7 6 7 8 9 10 12 16 17 18 20 22 21 20 19 18 16 16 14 14 12 11 9 8 7 6 6 6 6 7 7 9 11 12 13 14 16 17 18 20
2 3 2 5 4 6 8 10 11 14 15 16 17 17 17 18 19 17 16 15 14 13 11 10 8 7 6 6 6 6 6 7 9 10 10 12 14 15 17 18 19 18 18 20
7 3 4 7 7 9 10 11 12 15 15 16 14 13 13 14 13 12 12 10 9 7 6 5 5 5 5 5 6 7 8 9 11 13 12 15 15 17 18 18 19 20 21 18
6 6 7 7 9 9 9 10 11 13 12 12 12 11 11 10 9 8 7 6 5 4 4 4 5 6 7 7 8 10 10 11 13 14 14 15 15 16 16 16 17 18 18 17
7 6 7 8 8 9 10 10 10 10 10 10 9 8 7 6 5 4 2 2 3 4 5 6 8 9 9 9 10 11 12 12 12 15 14 14 14 15 14 14 15 15 15 13
6 7 8 8 8 8 8 8 7 6 6 5 4 3 2 1 1 2 3 5 6 7 8 8 9 11 11 11 11 12 12 13 13 14 14 14 13 14 13 13 13 13 14 14
10 9 8 7 6 6 5 4 3 2 2 1 2 3 4 5 6 7 8 8 8 8 9 10 10 11 11 11 12 12 13 14 14 14 14 15 13 14 15 15 15 14 15 15
8 7 6 5 3 2 2 2 3 3 4 5 6 6 7 8 9 9 9 9 8 9 9 9 10 10 11 12 12 14 14 15 15 14 14 15 14 13 13 14 17 18 16 16
8 7 5 3 1 2 3 4 5 6 8 8 9 8 9 9 9 10 10 10 5 10 10 10 11 11 11 12 12 11 8 8 10 12 14 16 16 15 17 17 17 18 19 19
9 5 2 2 2 3 4 5 6 7 9 10 11 11 11 10 10 11 11 11 7 10 12 12 12 13 14 14 12 11 12 12 13 12 13 14 16 17 19 20 21 20 19 20
8 4 3 3 4 4 4 5 6 8 8 9 10 11 12 12 12 13 11 8 10 10 13 14 14 16 15 15 17 19 20 20 20 19 20 20 21 23 24 24 23 22 22 22
8 5 5 4 4 3 3 5 7 9 10 11 12 13 15 16 17 16 16 16 16 17 18 19 18 17 17 21 22 23 24 25 24 24 23 24 26 25 25 25 26 25 24 24
9 7 6 6 4 1 1 4 6 8 10 12 14 15 18 19 23 22 23 23 23 23 25 23 22 21 22 27 29 30 30 30 30 29 27 25 24 23 22 24 25 26 28 25
11 9 10 9 6 1 3 6 8 9 13 15 15 15 15 16 19 21 23 24 24 25 26 26 23 23 24 25 27 29 30 30 29 28 27 27 25 25 24 23 23 23 24 23
14 16 15 10 6 3 5 8 11 13 14 16 20 17 18 18 18 19 20 21 21 22 23 24 24 24 25 26 27 27 27 27 27 28 28 28 29 28 27 25 25 25 26 27
Wind_Direction
229 202 164 196 188 194 207 223 201 257 224 230 216 196 182 172 175 173 173 174 178 179 178 181 187 192 195 193 191 194 192 193 195 197 198 199 201 203 204 205 206 209 212 214
278 151 111 268 235 210 226 256 287 203 260 223 291 167 172 180 176 177 180 180 180 179 179 181 182 181 182 183 185 190 193 194 194 194 194 196 198 199 201 204 207 210 213 216
250 151 120 291 203 194 193 202 216 233 247 155 197 192 188 188 186 181 183 183 180 180 178 175 174 177 180 182 185 189 191 189 187 187 189 191 192 194 196 198 202 207 213 220
182 98 226 255 206 205 219 230 228 355 317 280 301 219 211 201 188 187 189 185 183 181 179 179 180 178 180 180 179 179 179 180 181 183 186 187 190 195 200 204 210 217 224 230
176 209 318 288 38 90 157 294 8 308 289 254 142 126 74 197 200 193 189 186 185 182 181 178 178 177 177 173 176 178 178 179 180 184 188 190 192 195 198 202 211 219 227 234
102 232 220 295 356 352 24 300 327 286 265 175 155 177 164 165 186 184 185 186 182 180 180 179 175 174 175 176 175 175 177 179 179 181 183 186 190 196 205 215 225 233 241 246
206 238 275 354 314 323 106 263 333 332 311 201 152 342 154 164 166 184 186 179 177 175 176 174 174 176 175 176 177 177 177 179 181 183 187 193 202 215 227 237 246 252 254 256
152 190 259 352 334 175 325 324 353 356 30 114 133 144 152 156 159 165 171 171 172 172 171 171 174 175 175 177 177 178 179 180 181 182 187 198 215 232 245 254 258 258 257 259
64 46 43 31 41 18 13 19 3 35 81 145 138 141 148 149 152 157 163 165 164 170 168 168 169 171 176 172 172 173 176 180 184 188 200 214 232 245 255 259 258 258 256 258
137 49 49 39 39 39 45 53 52 78 117 142 138 143 142 144 148 151 152 154 155 160 160 159 162 164 171 166 167 172 178 186 191 202 216 233 247 254 257 258 259 258 261 262
73 45 9 42 29 26 54 61 64 83 106 137 150 143 146 143 144 146 147 146 148 152 153 153 153 157 161 169 174 180 186 193 203 219 231 241 247 251 252 256 256 260 265 272
30 342 262 25 11 21 52 64 70 84 110 124 150 144 146 140 141 143 144 143 147 150 154 154 154 158 162 166 170 180 191 203 216 228 237 241 245 252 258 259 265 271 274 277
308 20 84 67 35 48 71 74 89 103 108 123 128 135 138 134 135 138 137 137 139 140 142 146 150 155 158 164 174 192 209 223 236 246 252 258 262 263 259 262 270 272 273 272
1 185 344 28 63 72 87 98 104 105 113 120 125 131 133 134 133 136 137 139 142 145 148 150 154 162 175 191 205 222 240 253 259 263 266 268 271 275 279 280 281 276 273 277
52 64 133 115 102 97 100 107 111 107 110 114 118 121 126 129 132 133 135 138 138 138 147 164 182 201 221 236 249 256 262 265 268 270 272 274 277 277 278 281 282 283 286 287
87 104 113 115 106 105 106 107 109 110 114 115 118 119 119 118 119 123 127 136 150 171 201 227 245 253 259 264 266 267 266 267 272 273 272 274 276 277 278 278 280 284 289 294
122 120 123 117 115 115 115 112 111 112 115 116 119 123 128 133 139 149 167 207 237 250 257 261 267 268 271 273 272 273 274 273 266 269 271 273 276 275 273 272 279 287 293 293
144 134 125 121 118 117 118 119 120 120 121 123 127 131 145 175 233 257 264 268 274 279 281 281 281 282 284 283 280 279 278 275 271 269 268 267 268 275 273 275 282 290 294 293
136 136 133 127 124 120 120 125 131 139 157 206 246 259 269 275 277 280 280 282 282 279 271 284 282 282 283 278 277 276 275 274 271 273 271 268 264 260 266 274 278 283 290 292
144 140 137 133 135 148 177 208 231 247 255 264 269 273 273 273 274 276 279 283 286 282 280 280 279 281 278 276 274 278 281 277 275 273 271 266 264 252 254 263 274 280 281 289
163 157 151 152 204 257 270 275 276 276 277 281 283 283 283 277 279 280 285 291 287 282 287 287 286 281 276 277 280 288 283 290 294 289 278 261 251 254 260 266 271 280 279 282
164 160 176 251 275 282 289 292 291 288 289 288 289 287 283 281 278 279 284 291 285 279 285 285 284 282 281 277 289 295 289 285 282 280 276 273 268 267 269 273 270 273 275 281
182 190 231 252 254 257 267 275 284 288 288 287 284 280 277 276 270 272 275 279 282 281 282 284 284 279 272 272 273 278 278 279 279 277 274 273 276 274 273 270 266 267 273 278
202 218 234 235 233 245 266 288 300 300 295 288 284 280 277 275 269 268 273 278 279 283 284 287 284 278 275 273 270 269 268 272 275 278 280 278 276 275 272 269 262 266 275 274
221 231 221 203 201 167 19 343 339 324 314 307 298 288 281 277 276 276 274 271 272 275 277 277 276 272 263 258 260 264 268 272 275 276 275 275 276 277 275 270 267 265 273 272
234 225 197 184 177 182 342 338 334 335 329 326 320 315 305 293 286 284 282 279 276 273 274 277 276 272 270 269 266 263 265 267 268 268 269 269 269 272 273 273 273 272 274 277
230 209 197 203 223 260 314 327 330 333 327 320 317 324 315 308 303 299 296 293 290 285 282 281 279 276 272 271 269 269 268 268 267 268 266 265 268 270 271 272 272 272 272 273